Weather History for Prerov, Czech Republic

Change the Weather History Date:

Friday, January 18, 2013

  Actual Average Record
Temperature  
Mean Temperature 22 °F -  
Max Temperature 24 °F - - ()
Min Temperature 21 °F - - ()
Degree Days  
Heating Degree Days 42    
Moisture  
Dew Point 16 °F    
Average Humidity 76    
Maximum Humidity 86    
Minimum Humidity 68    
Precipitation  
Precipitation 0.00 in - - ()
Sea Level Pressure  
Sea Level Pressure 29.73 in    
Wind  
Wind Speed 11 mph ()    
Max Wind Speed 18 mph    
Max Gust Speed 30 mph    
Visibility 4.7 miles    
Events Snow    
T = Trace of Precipitation, MM = Missing Value Source: Averaged Metar Reports

Daily Weather History Graph

Daily Weather History Graph

Search for Another Location

Airport:

Trip Planner

Search our weather history database for the weather conditions in past years. The results will help you decide how hot, cold, wet, or windy it might be!

Date:

Astronomy

Jan. 18, 2013 Rise Set
Actual Time 7:38 AM CET 4:23 PM CET
Civil Twilight 7:02 AM CET 4:59 PM CET
Nautical Twilight 6:22 AM CET 5:39 PM CET
Astronomical Twilight 5:44 AM CET 6:17 PM CET
Moon 10:22 AM CET No Moon Set
Length of Visible Light 9h 57m
Length of Day
8h 45m
Waxing Crescent, 45% of the Moon is Illuminated
Jan 18
Waxing Crescent
Jan 19
First Quarter
Jan 27
Full
Feb 3
Last Quarter
Feb 10
New

Hourly Weather History & Observations

Time (CET) Temp. Windchill Dew Point Humidity Pressure Visibility Wind Dir Wind Speed Gust Speed Precip Events Conditions
12:00 AM 24.8 °F 16.1 °F 19.4 °F 80% 29.83 in 3.7 mi NE 8.1 mph - N/A   Overcast
1:00 AM 23.0 °F 13.9 °F 17.6 °F 80% 29.80 in 3.7 mi NE 8.1 mph - N/A   Overcast
2:00 AM 23.0 °F 13.1 °F 15.8 °F 74% 29.80 in 4.3 mi NE 9.2 mph - N/A   Overcast
4:00 AM 23.0 °F 10.1 °F 15.8 °F 74% 29.80 in 4.3 mi NE 15.0 mph - N/A   Overcast
5:00 AM 23.0 °F 11.7 °F 15.8 °F 74% 29.80 in 4.3 mi NE 11.5 mph - N/A   Overcast
6:00 AM 23.0 °F 10.6 °F 15.8 °F 74% 29.80 in 5.0 mi NE 13.8 mph - N/A   Overcast
7:00 AM 21.2 °F 8.3 °F 15.8 °F 80% 29.77 in 5.0 mi NE 13.8 mph - N/A   Overcast
8:00 AM 21.2 °F 10.1 °F 15.8 °F 80% 29.77 in 6.2 mi NNE 10.4 mph - N/A   Overcast
9:00 AM 21.2 °F 10.9 °F 14.0 °F 74% 29.80 in 6.2 mi NNE 9.2 mph - N/A   Overcast
9:47 AM 21.2 °F 7.8 °F 15.8 °F 80% 29.77 in 6.2 mi NE 15.0 mph 26.5 mph N/A   Overcast
10:00 AM 23.0 °F 11.7 °F 15.8 °F 74% 29.77 in 6.2 mi NNE 11.5 mph - N/A   Overcast
11:00 AM 23.0 °F 9.6 °F 14.0 °F 68% 29.74 in 6.2 mi NE 16.1 mph - N/A   Overcast
11:03 AM 23.0 °F 9.6 °F 15.8 °F 74% 29.74 in 6.2 mi NNE 16.1 mph 27.6 mph N/A   Overcast
11:58 AM 23.0 °F 9.6 °F 15.8 °F 74% 29.74 in 6.2 mi NE 16.1 mph 29.9 mph N/A   Overcast
12:00 PM 23.0 °F 9.6 °F 15.8 °F 74% 29.74 in 6.2 mi NE 16.1 mph - N/A   Overcast
1:00 PM 23.0 °F 8.7 °F 15.8 °F 74% 29.71 in 6.2 mi NE 18.4 mph - N/A   Overcast
1:14 PM 23.0 °F 9.6 °F 15.8 °F 74% 29.71 in 6.2 mi NE 16.1 mph 27.6 mph N/A   Overcast
2:00 PM 23.0 °F 10.6 °F 15.8 °F 74% 29.71 in 6.2 mi NE 13.8 mph - N/A   Overcast
3:00 PM 23.0 °F 11.1 °F 17.6 °F 80% 29.71 in 6.2 mi NE 12.7 mph - N/A   Overcast
4:00 PM 23.0 °F 11.7 °F 17.6 °F 80% 29.71 in 5.0 mi NE 11.5 mph - N/A   Overcast
5:00 PM 23.0 °F 11.1 °F 17.6 °F 80% 29.68 in 3.7 mi NE 12.7 mph - N/A   Overcast
5:30 PM 23.0 °F 10.1 °F 17.6 °F 80% 29.71 in 3.7 mi NE 15.0 mph 26.5 mph N/A Snow Light Snow
6:00 PM 23.0 °F 9.2 °F 17.6 °F 80% 29.68 in 3.7 mi NE 17.3 mph - N/A Snow Light Snow
7:00 PM 23.0 °F 9.6 °F 17.6 °F 80% 29.68 in 3.7 mi NE 16.1 mph - N/A Snow Light Snow
8:00 PM 23.0 °F 10.1 °F 17.6 °F 80% 29.68 in 3.7 mi NE 15.0 mph - N/A   Overcast
8:25 PM 23.0 °F 11.7 °F 17.6 °F 80% 29.68 in 2.8 mi NE 11.5 mph - N/A Snow Light Snow
9:00 PM 23.0 °F 10.1 °F 19.4 °F 86% 29.65 in 2.2 mi NE 15.0 mph - N/A Snow Light Snow
10:00 PM 23.0 °F 11.1 °F 17.6 °F 80% 29.65 in 2.8 mi NNE 12.7 mph - N/A Snow Light Snow
10:48 PM 24.8 °F 14.0 °F 15.8 °F 69% 29.62 in 3.1 mi NE 11.5 mph - N/A   Overcast
11:00 PM 24.8 °F 13.4 °F 15.8 °F 69% 29.65 in 3.1 mi NNE 12.7 mph - N/A   Overcast
11:02 PM 24.8 °F 12.4 °F 15.8 °F 69% 29.62 in 3.1 mi NE 15.0 mph 28.8 mph N/A   Overcast